TimeCDT,TemperatureF,Dew PointF,Humidity,Sea Level PressureIn,VisibilityMPH,Wind Direction,Wind SpeedMPH,Gust SpeedMPH,PrecipitationIn,Events,Conditions,WindDirDegrees,DateUTC
12:15 AM,35.1,29.3,80,30.15,10.0,Calm,Calm,-,N/A,,Clear,0,2012-10-10 05:15:00
12:55 AM,32.4,26.6,79,30.15,10.0,Calm,Calm,-,N/A,,Clear,0,2012-10-10 05:55:00
1:15 AM,31.1,25.3,79,30.15,10.0,Calm,Calm,-,N/A,,Clear,0,2012-10-10 06:15:00
1:35 AM,30.9,25.0,79,30.16,10.0,WNW,4.6,-,N/A,,Clear,290,2012-10-10 06:35:00
1:55 AM,28.4,23.5,82,30.16,10.0,WNW,5.8,-,N/A,,Clear,290,2012-10-10 06:55:00
2:15 AM,28.0,23.5,83,30.17,10.0,WNW,4.6,-,N/A,,Clear,290,2012-10-10 07:15:00
2:35 AM,27.9,23.0,82,30.17,10.0,WNW,3.5,-,N/A,,Clear,290,2012-10-10 07:35:00
2:55 AM,27.3,23.0,84,30.18,10.0,WNW,3.5,-,N/A,,Clear,290,2012-10-10 07:55:00
3:15 AM,27.5,23.9,86,30.17,10.0,West,5.8,-,N/A,,Clear,280,2012-10-10 08:15:00
3:35 AM,27.3,23.2,84,30.17,10.0,WNW,4.6,-,N/A,,Clear,300,2012-10-10 08:35:00
3:55 AM,27.0,22.8,84,30.17,10.0,WNW,3.5,-,N/A,,Clear,300,2012-10-10 08:55:00
4:15 AM,26.4,22.3,84,30.17,10.0,WNW,3.5,-,N/A,,Clear,300,2012-10-10 09:15:00
4:35 AM,25.9,21.9,85,30.18,10.0,West,3.5,-,N/A,,Clear,280,2012-10-10 09:35:00
4:55 AM,26.8,23.0,86,30.18,10.0,West,4.6,-,N/A,,Clear,280,2012-10-10 09:55:00
5:15 AM,25.9,22.5,87,30.19,10.0,WNW,4.6,-,N/A,,Clear,290,2012-10-10 10:15:00
5:35 AM,25.9,22.6,88,30.19,10.0,West,5.8,-,N/A,,Clear,280,2012-10-10 10:35:00
5:55 AM,26.2,22.5,86,30.20,10.0,West,5.8,-,N/A,,Clear,270,2012-10-10 10:55:00
6:15 AM,27.1,23.2,85,30.20,10.0,West,6.9,-,N/A,,Clear,280,2012-10-10 11:15:00
6:35 AM,27.3,23.0,84,30.20,10.0,West,4.6,-,N/A,,Clear,280,2012-10-10 11:35:00
6:55 AM,26.6,22.8,86,30.21,10.0,NW,3.5,-,N/A,,Clear,310,2012-10-10 11:55:00
7:15 AM,25.7,22.1,86,30.21,10.0,Calm,Calm,-,N/A,,Clear,0,2012-10-10 12:15:00
7:35 AM,26.2,22.1,84,30.21,10.0,West,4.6,-,N/A,,Clear,280,2012-10-10 12:35:00
7:55 AM,26.8,22.8,85,30.22,10.0,Calm,Calm,-,N/A,,Clear,0,2012-10-10 12:55:00
8:35 AM,30.4,25.7,83,30.23,10.0,WNW,3.5,-,N/A,,Clear,300,2012-10-10 13:35:00
8:55 AM,32.5,27.3,81,30.23,10.0,West,4.6,-,N/A,,Clear,280,2012-10-10 13:55:00
9:15 AM,36.1,28.2,73,30.23,10.0,West,4.6,-,N/A,,Clear,280,2012-10-10 14:15:00
9:35 AM,38.3,28.4,68,30.23,10.0,West,4.6,-,N/A,,Clear,270,2012-10-10 14:35:00
9:55 AM,41.4,29.1,62,30.24,10.0,West,3.5,-,N/A,,Clear,270,2012-10-10 14:55:00
10:15 AM,43.3,28.9,57,30.23,10.0,Calm,Calm,-,N/A,,Clear,0,2012-10-10 15:15:00
10:35 AM,45.7,29.5,53,30.22,10.0,Calm,Calm,-,N/A,,Clear,0,2012-10-10 15:35:00
10:55 AM,48.4,29.1,47,30.23,10.0,Calm,Calm,-,N/A,,Clear,0,2012-10-10 15:55:00
11:15 AM,51.1,27.0,39,30.22,10.0,SSW,3.5,-,N/A,,Clear,210,2012-10-10 16:15:00
11:55 AM,53.8,27.1,36,30.21,10.0,South,5.8,-,N/A,,Clear,180,2012-10-10 16:55:00
12:15 PM,54.9,27.5,35,30.21,10.0,SW,3.5,-,N/A,,Clear,220,2012-10-10 17:15:00
12:35 PM,56.1,27.7,34,30.21,10.0,SW,6.9,-,N/A,,Clear,220,2012-10-10 17:35:00
12:55 PM,57.4,28.4,33,30.19,10.0,SW,3.5,-,N/A,,Clear,220,2012-10-10 17:55:00
1:15 PM,58.5,29.3,33,30.18,10.0,SW,9.2,-,N/A,,Clear,220,2012-10-10 18:15:00
1:35 PM,59.4,29.5,32,30.16,10.0,SW,9.2,-,N/A,,Clear,220,2012-10-10 18:35:00
1:55 PM,60.6,29.5,31,30.15,10.0,SSW,11.5,17.3,N/A,,Clear,200,2012-10-10 18:55:00
2:15 PM,61.9,30.2,30,30.13,10.0,SW,10.4,-,N/A,,Clear,220,2012-10-10 19:15:00
2:35 PM,62.4,30.4,30,30.12,10.0,SSW,10.4,17.3,N/A,,Clear,200,2012-10-10 19:35:00
2:55 PM,63.3,30.9,30,30.11,10.0,SSW,11.5,17.3,N/A,,Clear,200,2012-10-10 19:55:00
3:15 PM,64.0,30.7,29,30.10,10.0,SSW,10.4,-,N/A,,Clear,210,2012-10-10 20:15:00
3:35 PM,64.2,30.4,28,30.09,10.0,South,9.2,-,N/A,,Clear,190,2012-10-10 20:35:00
3:55 PM,65.1,30.7,28,30.08,10.0,SSW,11.5,17.3,N/A,,Clear,210,2012-10-10 20:55:00
4:15 PM,65.3,30.4,27,30.07,10.0,SSW,11.5,18.4,N/A,,Clear,210,2012-10-10 21:15:00
4:35 PM,65.5,30.7,27,30.06,10.0,SSW,12.7,17.3,N/A,,Clear,210,2012-10-10 21:35:00
4:55 PM,65.1,30.6,27,30.05,10.0,SW,11.5,-,N/A,,Clear,220,2012-10-10 21:55:00
5:15 PM,64.9,30.6,28,30.04,10.0,SSW,9.2,18.4,N/A,,Clear,210,2012-10-10 22:15:00
5:35 PM,64.4,30.6,28,30.04,10.0,SSW,13.8,19.6,N/A,,Clear,210,2012-10-10 22:35:00
5:55 PM,64.0,30.9,29,30.04,10.0,South,10.4,-,N/A,,Clear,190,2012-10-10 22:55:00
6:15 PM,63.1,30.9,30,30.03,10.0,South,10.4,-,N/A,,Clear,190,2012-10-10 23:15:00
6:35 PM,61.9,30.7,31,30.03,10.0,South,6.9,-,N/A,,Clear,190,2012-10-10 23:35:00
6:55 PM,59.9,30.6,33,30.03,10.0,South,5.8,-,N/A,,Clear,180,2012-10-10 23:55:00
7:15 PM,58.1,30.2,35,30.03,10.0,South,5.8,-,N/A,,Clear,170,2012-10-11 00:15:00
7:35 PM,57.6,30.2,35,30.04,10.0,South,6.9,-,N/A,,Clear,170,2012-10-11 00:35:00
7:55 PM,57.4,30.2,36,30.04,10.0,South,6.9,-,N/A,,Clear,170,2012-10-11 00:55:00
8:15 PM,57.7,30.0,35,30.04,10.0,South,9.2,-,N/A,,Clear,180,2012-10-11 01:15:00
8:35 PM,57.0,29.7,35,30.04,10.0,South,9.2,-,N/A,,Clear,170,2012-10-11 01:35:00
8:55 PM,56.7,29.8,36,30.04,10.0,South,10.4,-,N/A,,Clear,180,2012-10-11 01:55:00
9:15 PM,55.8,29.7,37,30.04,10.0,South,9.2,-,N/A,,Clear,170,2012-10-11 02:15:00
9:35 PM,54.9,29.7,38,30.04,10.0,South,8.1,-,N/A,,Clear,170,2012-10-11 02:35:00
9:55 PM,54.9,29.7,38,30.04,10.0,South,9.2,-,N/A,,Clear,170,2012-10-11 02:55:00
10:15 PM,54.9,29.3,38,30.04,10.0,South,11.5,-,N/A,,Clear,170,2012-10-11 03:15:00
10:35 PM,53.8,29.3,39,30.04,10.0,South,11.5,-,N/A,,Clear,170,2012-10-11 03:35:00
10:55 PM,54.3,29.3,38,30.03,10.0,South,9.2,-,N/A,,Clear,180,2012-10-11 03:55:00
11:15 PM,53.1,29.1,40,30.03,10.0,South,12.7,-,N/A,,Clear,180,2012-10-11 04:15:00
11:35 PM,52.7,29.1,40,30.03,10.0,South,11.5,17.3,N/A,,Clear,180,2012-10-11 04:35:00
11:55 PM,51.8,29.3,42,30.03,10.0,South,13.8,-,N/A,,Clear,180,2012-10-11 04:55:00